Regional Weather Roundup
Issued by NWS Jackson, KY

Home | Current Version | Previous Version | Graphics & Text | Print | Product List | Glossary On
Versions: 1 2 3 4 5 6 7 8 9 10 11 12 13 14 15 16 17 18 19 20 21 22 23 24 25 26 27 28 29 30 31 32 33 34 35 36 37 38 39 40 41 42 43 44 45 46 47 48 49 50
000
ASUS43 KJKL 302310
RWRJKL

EAST KENTUCKY HOURLY WEATHER ROUNDUP
NATIONAL WEATHER SERVICE JACKSON KY
700 PM EDT THU JUL 30 2015

NOTE: "FAIR" INDICATES FEW OR NO CLOUDS BELOW 12,000 FEET WITH
NO SIGNIFICANT WEATHER AND/OR OBSTRUCTIONS TO VISIBILITY.

* THESE REPORTS ARE NOT UNDER NWS QUALITY CONTROL AND MAY NOT
  REPORT WEATHER SUCH AS PRECIPITATION AND FOG.

KYZ079-080-083-085-087-088-110-112-115-119-120-310000
...EASTERN KENTUCKY...

CITY           SKY/WX    TMP DP  RH WIND       PRES   REMARKS
JACKSON        MOSUNNY   81  61  50 NW8       30.05S
LONDON         MOSUNNY   84  60  44 N12       30.05S
SOMERSET*      SUNNY     81  61  50 N12       30.06S
MONTICELLO*    SUNNY     84  64  50 N9        30.08S
MIDDLESBORO*   MOSUNNY   84  65  52 NW10      30.03R
HAZARD APT*    PTCLDY    82  63  51 NW3       30.04S
BLACK MTN*       N/A     68  63  83 N5          N/A
PIKEVILLE APT* MOSUNNY   81  66  61 NW5       30.03F
BIG SANDY*     PTCLDY    82  63  52 N7        30.03S
MOREHEAD APT*  CLEAR     82  59  44 NW8       30.06S
$$

KYZ035-036-041-042-044-050-067-078-099-310000
...CENTRAL KENTUCKY...

CITY           SKY/WX    TMP DP  RH WIND       PRES   REMARKS
MT STERLING*   SUNNY     82  63  51 N5        30.06F
FLEMING/MASON* SUNNY     82  57  42 NW8       30.05S
DANVILLE*      SUNNY     81  59  47 NW7       30.07S
RICHMOND*      SUNNY     82  59  44 NW8       30.05S
LEXINGTON      SUNNY     82  59  45 NW12      30.05F
FRANKFORT      SUNNY     83  58  42 NW8       30.04F
$$

KYZ091>093-OHZ055-061-077-WVZ005-015-034-035-042-310000
...SOUTHERN OHIO/WEST VIRGINIA...

CITY           SKY/WX    TMP DP  RH WIND       PRES   REMARKS
COVINGTON      MOSUNNY   82  54  37 NW14G20   30.04F
COLUMBUS       MOSUNNY   82  58  43 W15       29.99S
DAYTON         MOSUNNY   82  59  45 W12       30.03F
WILMINGTON     SUNNY     82  57  42 NW12      30.02F
HUNTINGTON     SUNNY     83  58  42 NW9       30.00S
CHARLESTON     MOSUNNY   84  60  44 NW6       29.99S
PINEVILLE*     SUNNY     78  67  69 MISG      30.08S
BECKLEY        MOSUNNY   77  60  55 NW10      30.06S
BLUEFIELD      PTSUNNY   80  64  58 VRB7      30.08S
$$

VAZ002-007-008-TNZ017-027-036-066-071-310000
...SOUTHWEST VIRGINIA/EAST TENNESSEE...

CITY           SKY/WX    TMP DP  RH WIND       PRES   REMARKS
WISE*          MOSUNNY   79  61  53 NW9       30.11R
ABINGDON*      MOSUNNY   84  64  51 N10G17    30.03S
BRISTOL        PTSUNNY   84  68  58 N5        29.99S
KNOXVILLE      PTSUNNY   88  68  51 N10       29.97F HX  91
OAK RIDGE      SUNNY     89  65  44 VRB6      30.00S HX  91
CROSSVILLE     SUNNY     81  60  48 N9G18     30.07F
NASHVILLE      SUNNY     86  61  42 N13G20    30.04F
$$

...KEY TO REMARKS...
VSB - VISIBILITY IN MILES
WCI - WIND CHILL INDEX
HX  - HEAT INDEX

$$



USA.gov is the U.S. government's official web portal to all federal, state and local government web resources and services.